This is the latest recevied weather packets stored in our database for station/object K5SVV. If no packets are shown the sender has not sent any weather packets the latest 10 day(s).
| Time | Temp. | Humidity | Pressure | Rain* | Wind** | Luminosity | Snow |
|---|---|---|---|---|---|---|---|
| 1778009193 | 28.89° C | 74% | 1004.5 hPa | 0 mm | - | 780 W/m² | - |
| 1778008889 | 28.33° C | 72% | 1004.7 hPa | 0 mm | - | 557 W/m² | - |
| 1778008588 | 28.89° C | 73% | 1004.7 hPa | 0 mm | - | 443 W/m² | - |
| 1778008286 | 28.33° C | 75% | 1004.7 hPa | 0 mm | - | 503 W/m² | - |
| 1778007981 | 28.33° C | 75% | 1004.6 hPa | 0 mm | - | 576 W/m² | - |
| 1778007676 | 28.33° C | 73% | 1004.8 hPa | 0 mm | - | 660 W/m² | - |
| 1778007373 | 28.33° C | 74% | 1004.8 hPa | 0 mm | - | 491 W/m² | - |
| 1778007069 | 28.33° C | 74% | 1004.9 hPa | 0 mm | - | 621 W/m² | - |
| 1778006766 | 28.33° C | 74% | 1004.8 hPa | 0 mm | - | 636 W/m² | - |
| 1778006463 | 27.78° C | 75% | 1005 hPa | 0 mm | - | 707 W/m² | - |
| 1778006159 | 27.78° C | 75% | 1005 hPa | 0 mm | - | 583 W/m² | - |
| 1778005857 | 27.78° C | 74% | 1005 hPa | 0 mm | - | 719 W/m² | - |
| 1778005553 | 27.78° C | 75% | 1005.3 hPa | 0 mm | - | 592 W/m² | - |
| 1778005250 | 27.22° C | 75% | 1005.3 hPa | 0 mm | - | 609 W/m² | - |
| 1778004947 | 27.78° C | 76% | 1005.3 hPa | 0 mm | - | 525 W/m² | - |
| 1778004644 | 27.78° C | 76% | 1005.3 hPa | 0 mm | - | 693 W/m² | - |
| 1778004339 | 27.22° C | 76% | 1005.1 hPa | 0 mm | - | 712 W/m² | - |
| 1778004038 | 27.22° C | 76% | 1005.4 hPa | 0 mm | - | 761 W/m² | - |
| 1778003737 | 27.22° C | 77% | 1005.2 hPa | 0 mm | - | 735 W/m² | - |
| 1778003435 | 26.67° C | 78% | 1005.1 hPa | 0 mm | - | 899 W/m² | - |
| 1778003132 | 26.11° C | 78% | 1005.3 hPa | 0 mm | - | 567 W/m² | - |
| 1778002828 | 26.67° C | 78% | 1005.3 hPa | 0 mm | - | 438 W/m² | - |
| 1778002525 | 26.67° C | 79% | 1005 hPa | 0 mm | - | 455 W/m² | - |
| 1778002222 | 26.11° C | 78% | 1005 hPa | 0 mm | - | 491 W/m² | - |
| 1778001920 | 26.67° C | 78% | 1005.2 hPa | 0 mm | - | 569 W/m² | - |
* Rain latest hour (hover to see other rain measurements)
** Current wind speed in m/s (hover to see current wind gust speed)